www.pogodaiklimat.ru
ПОГОДА в Хиллсборо
Время
и дата
13:53 26.05
14:53 26.05
15:53 26.05
15:56 26.05
16:53 26.05
17:53 26.05
18:53 26.05
19:53 26.05
20:53 26.05
21:53 26.05
22:53 26.05
23:53 26.05
00:53 27.05
01:53 27.05
02:53 27.05
03:53 27.05
04:53 27.05
05:22 27.05
05:53 27.05
06:53 27.05
07:53 27.05
08:21 27.05
08:53 27.05
09:53 27.05
10:08 27.05
10:53 27.05
11:53 27.05
12:53 27.05
13:53 27.05
14:53 27.05
15:53 27.05
16:53 27.05
17:53 27.05
18:53 27.05
19:53 27.05
20:53 27.05
21:53 27.05
22:53 27.05
23:53 27.05
00:53 28.05
01:53 28.05
02:53 28.05
03:53 28.05
04:53 28.05
05:29 28.05
05:53 28.05
06:53 28.05
07:53 28.05
Ветер
(напр.,м/с)
Видим. Явления Облачность Т
(С)
Тd
(С)
f
(%)
Тe
(С)
Тes
(С)
Комфортность P
(гПа)
Po
(гПа)
Тmin
(С)
Tmax
(С)
R
(мм)
R24
(мм)
S
(см)
штиль 0 16 км 8/8 1470 м +18.9 +7.8 48 +19 +24 1019.4 1012.0
нст 2 16 км 8/8 1500 м +19.4 +8.3 49 +21 +24 комфорт 1018.9 1011.4
С 3 16 км 10/10 1500 м +20.0 +8.3 47 +21 +21 комфорт 1018.6 1011.4 +14.4 +20.6
С 2 16 км 8/8 1500 м +20.0 +8.3 47 +22 +24 комфорт 1011.4
нст 2 16 км 8/8 1650 м +19.4 +8.3 49 +21 +22 комфорт 1018.6 1011.0
СЗ 3 16 км 8/8 1800 м +20.0 +9.4 50 +22 +22 комфорт 1018.2 1010.7
СЗ 6 16 км 2/2 1650 м +16.7 +10.0 65 +16 +16 1018.9 1011.4
СЗ 2 16 км 2/2 1500 м +13.9 +10.0 77 +13 +14 1019.2 1011.7
СЗ 3 16 км ясно +12.8 +9.4 80 +11 +11 1019.9 1012.4
СЗ 3 16 км ясно +11.1 +8.9 86 +9 +9 1020.1 1012.7 +10.6 +21.1
СЗ 3 16 км ясно +10.6 +8.9 89 +8 +8 1020.3 1012.7
СЗ 2 16 км ясно +9.4 +8.3 93 +8 +8 1020.3 1012.7
З 2 16 км ясно +10.0 +7.8 86 +8 +8 1020.6 1013.1
З 2 16 км ясно +9.4 +7.8 90 +8 +8 1020.4 1013.1
штиль 0 16 км ясно +7.8 +6.7 93 +7 +7 1020.6 1013.1
штиль 0 16 км 10/10 930 м +8.3 +7.8 97 +7 +7 1020.6 1013.4 +7.8 +11.1
штиль 0 16 км 10/10 930 м +8.3 +7.8 97 +7 +7 1020.9 1013.4
штиль 0 16 км 8/8 930 м +8.9 +7.8 93 +8 +8 1013.4
штиль 0 16 км 10/10 780 м +10.0 +8.3 89 +9 +9 1021.0 1013.7
штиль 0 16 км 10/10 780 м +11.1 +8.9 86 +10 +10 1021.5 1014.1
штиль 0 16 км 10/10 810 м +12.8 +8.9 77 +12 +12 1021.7 1014.1
штиль 0 16 км 5/5 810 м +14.4 +8.3 67 +14 +19 1014.1
штиль 0 16 км 8/8 840 м +14.4 +8.9 70 +14 +16 1021.5 1014.1
штиль 0 16 км 8/8 690 м +14.4 +9.4 72 +14 +17 1021.4 1014.1 +8.3 +16.1
СЗ 3 16 км 5/5 690 м +15.6 +9.4 67 +15 +21 1013.7
штиль 0 16 км ясно +17.2 +9.4 60 +17 +37 опасность
простуды
1021.0 1013.4
штиль 0 16 км ясно +18.3 +8.9 54 +19 +42 опасность
простуды
1020.3 1012.7
штиль 0 16 км ясно +19.4 +9.4 52 +20 +45 опасность
простуды
1019.5 1012.0
штиль 0 16 км ясно +20.6 +8.9 47 +22 +46 комфорт 1018.8 1011.4
С 2 16 км ясно +21.7 +9.4 45 +23 +39 комфорт 1018.2 1010.7
нст 2 16 км ясно +21.7 +10.0 47 +23 +36 комфорт 1017.7 1010.4 +14.4 +22.2
СВ 3 16 км ясно +22.2 +11.1 49 +24 +31 комфорт 1017.1 1009.7
СВ 3 16 км ясно +21.1 +11.1 53 +23 +27 комфорт 1016.9 1009.4
СВ 2 16 км 2/2 1470 м +20.0 +10.6 55 +22 +24 комфорт 1017.1 1009.7
СЗ 4 16 км ясно +17.2 +11.1 67 +17 +17 1017.0 1009.7
СЗ 5 16 км ясно +15.6 +11.1 75 +14 +14 1017.6 1010.0
СЗ 4 16 км ясно +15.0 +10.6 75 +14 +14 1017.5 1010.0 +15.0 +22.8
СЗ 3 16 км ясно +13.9 +10.0 77 +13 +13 1017.4 1010.0
З 2 16 км ясно +12.8 +10.0 83 +12 +12 1017.4 1010.0
штиль 0 16 км ясно +12.8 +9.4 80 +12 +12 1017.4 1010.0
СЗ 3 16 км ясно +12.8 +8.9 77 +11 +11 1017.6 1010.0
З 3 16 км 10/10 1230 м +12.2 +8.3 77 +11 +11 1017.9 1010.7
З 2 16 км 10/10 1230 м +12.2 +7.2 71 +11 +11 1018.4 1011.0 +12.2 +14.4
З 2 16 км 10/10 1230 м +12.2 +6.7 69 +11 +11 1018.6 1011.0
СЗ 2 16 км 10/10 810 м +12.2 +6.7 69 +11 +11 1011.4
СЗ 2 16 км 10/10 840 м +12.2 +7.8 74 +11 +11 1019.3 1012.0
З 2 16 км 10/10 840 м +12.2 +7.8 74 +11 +11 1019.5 1012.0
штиль 0 16 км 10/10 1020 м +12.8 +8.3 74 +12 +12 1019.8 1012.4
Местоположение метеостанции Portland-Hillsboro Airport: широта 45.5481 долгота -122.9544 высота над уровнем моря 62 м.
В архиве по умолчанию представлена погода в Хиллсборо за последние 1-2 суток. Обновление информации о фактической погоде в базе происходит ежечасно! Архивные данные за месяц целиком и за предыдущие месяцы Вы можете получить, выбрав интересующий диапазон дат из раскрывающегося списка и нажав кнопку "Ввод!".
Внимание! Архив погоды МЕТАР в базе сайта по станциям, не включенным в климатический монитор, хранится не более 60 дней. Нет смысла пытаться выбрать более раннюю дату.
*Определитесь, кто Вы:
Внимание! Время в таблицах - местное (без учета летнего времени). Для получения всемирного времени необходимо вычесть поправку, которая равна -8 ч.
Смотрите также архив погоды в соседних городах и на ближайших метеорологических станциях:
Партнеры нашего сайта:      
Пояснения к столбцам:
  • Ветер - указаны скорость ветра в м/с - средняя за 10 мин, порывы в срок и между сроками (в фигурных скобках) и направление, откуда дует ветер: С - северный,
  • СВ - северо-восточный, В - восточный, ЮВ - юго-восточный, Ю - южный, ЮЗ - юго-западный, З - западный, СЗ - северо-западный.
  • Видимость - горизонтальная дальность видимости в метрах или километрах. При видимости от 1 до 10 км при отсутствии осадков обычно наблюдается дымка, при ухудшении видимости до 1 км и менее - туман. В сухую погоду видимость может ухудшаться дымом, пылью или мглою.
  • Явления - указаны атмосферные явления, наблюдавшиеся в срок или в последний час перед сроком; фигурными скобками обозначены явления, наблюдавшиеся между сроками (за 1-3 часа до срока); квадратными скобками обозначены град или гололедные отложения с указанием их диаметра в мм.
  • Облачность - указаны через наклонную черту общая и нижняя облачность в баллах и высота нижней границы облаков в метрах; квадратными скобками обозначены формы облаков: Ci - перистые, Cs - перисто-слоистые, Cc - перисто-кучевые, Ac - высококучевые, As - высокослоистые, Sc - слоисто-кучевые, Ns - слоисто-дождевые, Cu - кучевые, Cb - кучево-дождевые. Подробнее классификацию облаков см. в Атласе облаков (PDF).
  • T - Температура воздуха - температура, измеренная на высоте 2 м над землей.
  • Td - Температура точки росы - температура, при понижении до которой содержащийся в воздухе водяной пар достигнет насыщения.
  • f - Относительная влажность воздуха - влажноcть воздуха, измеренная на высоте 2 м над землей.
  • Te - Эффективная температура - температура, которую ощущает одетый по сезону человек в тени. Характеристика душности погоды. При расчете учитывается влияние влажности воздуха и скорости ветра на теплоощущения человека.
  • Tes - Эффективная температура на солнце - температура, которую ощущает человек, с поправкой на солнечный нагрев. Характеристика знойности погоды. Зависит от высоты солнца над горизонтом, облачности и скорости ветра. Ночью, в пасмурную погоду, а также при ветре 12 м/с и более поправка равна нулю.
  • P - Атмосферное давление - приведенное к уровню моря атмосферное давление.
  • Po - Атмосферное давление - измеренное на уровне метеостанции атмосферное давление.
  • Tmin - Минимальная температура - минимум температуры воздуха на высоте 2 м над землей.
  • Tmax - Максимальная температура - максимум температуры воздуха на высоте 2 м над землей.
  • R - Количество осадков - Количество выпавших осадков за период времени, мм. При наведении курсора мыши на число - период времени, за который выпало указанное количество осадков.
  • R24 - Количество осадков - Количество выпавших осадков за 24 часа, мм.
  • S - Снежный покров - Высота снежного покрова, см. При наведении курсора мыши на число - состояние снежного покрова и степень покрытия местности в баллах.